Погода в Яльчиках

Россия / Чувашская Республика     55°09′40″N   48°00′34″E
темп.,
°C
ветер,
м/с
пор.,
м/с
влажн.,
%
обл.,
%
осадки,
мм/ч
давл.,
гПа
погр.,
м
23 апреля, пт
пт2300:00+6ю11855 0.0 102410
03:00+5ююв11875 0.0 102410
06:00+6юв23885 0.0 102566
09:00+10ююв34685 0.0 1025450
12:00+13ююв33543 0.0 10241117
15:00+14ююв445152 0.0 10221656
18:00+13юв4662100 0.1 1021266
21:00+9вюв3778100 0.1 1021151
24 апреля, сб
сб2400:00+8в3479100 0.0 101962
03:00+7всв3482100 0.0 101780
06:00+7в4885100 0.0 1015279
09:00+9в4678100 0.0 1014583
12:00+8вюв5579100 0.2 1013723
15:00+8вюв5686100 0.3 1011690
18:00+7вюв4687100 0.1 1009507
21:00+5вюв5109684 0.1 1007306
25 апреля, вс
вс2500:00+6юв51296100 0.1 1003385
03:00+4зюз61192100 2.6 1003657
06:00+5зюз61177100 1.3 1003832
09:00+5зюз81277100 1.5 10041270
12:00+7зюз10156759 0.6 10061720
15:00+10зюз10154419 0.6 10082545
18:00+7зюз9155389 0.2 10101560
21:00+5зюз8146424 0.2 1012844
26 апреля, пн
пн2600:00+4зюз815640 0.0 1012818
03:00+3зюз816705 0.0 1014746
06:00+3юз613730 0.0 1014609
09:00+8юз9155093 0.0 10141623
12:00+8зюз8146299 0.1 10141798
15:00+10зюз7104398 0.1 10141996
18:00+9зюз4655100 0.0 1013457
21:00+5св2271100 0.0 101336
27 апреля, вт
вт2700:00+4вюв347798 0.0 101169
03:00+4юв3881100 0.0 1009174
06:00+5ююв5127182 0.0 1007378
09:00+4юз71094100 0.3 1007815
12:00+6з7106681 0.1 10081235
15:00+9зюз7948100 0.2 10081994
18:00+7зсз3564100 0.6 1008590
21:00+4зюз3578100 0.8 1008116